{"data":{"norad_id":63298,"epoch":"2026-05-25T04:29:45.520224Z","epoch_age_seconds":55927,"freshness":"FRESH","line1":"1 63298U 25055H   26145.18733241  .00043660  00000+0  12246-2 0  9997","line2":"2 63298  97.6489 290.7749 0007426 213.1916 146.8862 15.36423905 65917","mean_motion":15.36423905,"eccentricity":0.0007426,"inclination_deg":97.6489,"raan_deg":290.7749,"arg_perigee_deg":213.1916,"mean_anomaly_deg":146.8862,"bstar":0.0012246,"rev_number":6591,"period_min":93.724134030575,"perigee_km":451.61882661732,"apogee_km":461.7699181716,"semimajor_km":6834.8313723945,"source":"CELESTRAK","updated_at":"2026-05-25T13:38:03.647120Z"}}